Back to catalog

ATLAS 5 CENTAUR DEB

LostHEO
NORAD 46860·DEBRIS·🇺🇸 United States

Launched Oct 17, 2018 from Cape Canaveral Space Force Station

Loading…

Next Passes (next 24 hours)

TLE

StaleSource: Space-Track

Epoch: Jan 24, 2025, 11:04 UTC

1 46860U 18079DR  25024.46124850 -.00000082  00000-0  00000-0 0  9993
2 46860  12.8407 109.8096 5086858 165.5802 217.1634  1.65575031 25563

Track ATLAS 5 CENTAUR DEB in real time with AllMySat

Download on the App Store